Погода в Жалтыре

Погода в Жалтыре : погода сейчас, прогноз погоды и архив. Всё, что Вы хотите узнать о погоде в Жалтыре!

Поиск расширенной информации на нашем сайте:

Другие новости

Новости СМИ2

Главная страница сайта

Новости сайта

02.10.2013

Напоминаем, что на нашем новом сайте вы можете получить высокодетализированные прогнозы погоды по пунктам России, СНГ и мира (включающие важные для авиации метеовеличины, такие как направление и скорость ветра, видимость, явления погоды, количество и форма облачности, нижняя и верхняя граница облачности), а также ознакомиться с разнообразными материалами по авиационной метеорологии и подборкой полезных ссылок на эту тему.

Сайт Метеоцентр.Азия посвящён разработке технологий оптимизации авиаметеорологического обслуживания, включая проектирование и перспективное создание нескольких автоматизированных авиаметеорологических систем:
- система выпуска высокодетальных прогностических карт явлений погоды для нижнего воздушного пространства по России и ближнему зарубежью;
- система верификации прогнозов TAF (выпускаемых синоптиками официальных АМСГ РФ и ближнего зарубежья) и AUTOTAF (выпускаемых сайтом Метеоцентр.Азия) - выявление ошибок, онлайн-сопоставление с фактической погодой METAR, автоматическое внесение коррективов в прогнозы при резком отклонении фактической погоды от прогноза, подсчёт оправдываемости прогнозов по элементам и в целом;
- система обработки, анализа и отображения авиаметеорологической информации для применения провайдерами метеорологической информации.

Рекомендуем: традиционные стили ушу

Погода в Жалтыре - сегодня

Время (UTC), дата Ветер
(°,м/с) 
Видим.   Явления Облачность Т
(°С)
Тd
(°С)
f(%) Тe
(°С)
Pmin
(гПа)
dP
(гПа)
Po
(мм)
O2
(г/м3)
Тmin Tmax R s Состояние
почвы
06 23.04.17 150 (ЮВ) 9-15{17}  4000 м    9/9 600 м кучево-дожд. 
[Cb cap]
+12 +1.3 48 +10  1011.6  -5.4  732  282  -0.5         
09 23.04.17 230 (ЮЗ) 9-18{21}  4000 м  в посл. час ливневой дождь  9/9 600 м кучево-дожд. 
[Cb cap]
+7.4 +5.4 87 +5  1013.4  1.2  733  286           
12 23.04.17 230 (ЮЗ) 7{18}  4000 м  {ливн. осадки}  8/8 600 м кучево-дожд. 
[Cb cap]
+9.3 +5.4 77 +7  1014  0.8  733  285           
18 23.04.17 250 (З) н/о    10/10 600 м кучево-дожд. 
[Cb cap]
+6.9 +3.6 79 +5  1016.3  1.1  735  288    +15     
21 23.04.17 230 (ЮЗ) н/о    ясно 
+4.8 +2.1 83 +3  1017.9  1.3  736  291           
00 24.04.17 230 (ЮЗ) 4000 м    ясно 
+3.2 +1.1 86 +2  1020.1  1.9  737  293           
03 24.04.17 260 (З) 4000 м    ясно 
+6.1 +3.3 82 +4  1022.6  2.8  739  291           
06 24.04.17 250 (З) 4000 м    3/0 верхняя 
[Ci fib]
+10.8 +1.3 52 +10  1023.2  1.1  740  287  +2.5         
09 24.04.17 270 (З) 4000 м    4/0 верхняя 
[Ci]
+13.6 +1.1 42 +14  1022.7  -0.1  740  284           
12 24.04.17 230 (ЮЗ) 4000 м    8/0 верхняя 
[Cs]
+15 +0.7 38 +16  1022.4  -0.1  740  282           
15 24.04.17 100 (В) 4000 м    8/0 верхняя 
[Cs]
+12.6 +1.5 47 +13  1022  -0.7  739  284    +15.7       
18 24.04.17 110 (В) н/о    ясно 
+9.8 +2 58 +9  1022.7  0.3  739  287    +15.7       
21 24.04.17 140 (ЮВ) н/о    ясно 
+9.4 +3.2 65 +9  1021.4  -1.3  738  287           
00 25.04.17 140 (ЮВ) 4000 м    ясно 
+8.6 +3.5 70 +7  1020.5  -0.9  738  288           
03 25.04.17 160 (Ю) 4000 м    8/0 верхняя 
[Cs]
+13.2 +5.9 61 +12  1019.9  738  283           
06 25.04.17 170 (Ю) 4000 м    9/0 верхняя 
[Cs]
+20.7 +7.4 42 +21  1018.1  -0.8  737  275  +8.6         
09 25.04.17 190 (Ю) 4000 м    10/0 верхняя 
[Cs]
+24.5 +3.5 26 +25  1016.7  -1  736  272           
12 25.04.17 180 (Ю) 4000 м    10/0 верхняя 
[Cs]
+24.6 +6.1 30 +25  1015.3  -1.3  735  271           
15 25.04.17 130 (ЮВ) 4000 м    10/0 верхняя 
[Cs]
+19 +6.5 44 +20  1015.7  -0.3  735  276    +25.8       
18 25.04.17 140 (ЮВ) н/о    ясно 
+16.1 +5.1 48 +16  1015.4  -0.6  735  279    +25.8       
21 25.04.17 130 (ЮВ) н/о    ясно 
+14.6 +5.4 54 +15  1014.5  -1.1  734  280           
00 26.04.17 150 (ЮВ) 4000 м    8/0 верхняя 
[Cs]
+14.9 +6.8 58 +14  1013.8  -0.6  734  279           
03 26.04.17 160 (Ю) 4000 м    8/0 средняя 
[Ac cast]
+17.5 +8.5 55 +18  1013.9  0.4  734  276           
06 26.04.17 180 (Ю) 4000 м    6/6 600 м кучево-дожд. 
[Cb calv]
+22.7 +6.2 34 +23  1012.7  -0.5  733  272  +14.2         
09 26.04.17 180 (Ю) 4000 м    6/6 600 м 
[Cu med, cong]
+27 +8.2 30 +27  1010.7  -1.5  732  267           
Время (UTC), дата Ветер
(°,м/с) 
Видим.   Явления Облачность Т
(°С)
Тd
(°С)
f(%) Тe
(°С)
Pmin
(гПа)
dP
(гПа)
Po
(мм)
O2
(г/м3)
Тmin Tmax R s Состояние
почвы

Для получения пояснительной информации подведите курсор к названию столбца.

ПОГОДА в Жалтыре - архив

Всё, что Вы хотите узнать о погоде в Жалтыре - удобно и подробно!

Выберите нужную дату (начиная с 1 января 2015* года) и нажмите кнопку "Найти".
Будут отображены архивные сводки погоды по пункту Жалтыр, начиная с указанной даты.


Отображать данные в формате CSV (для использования в таблицах Excel)


Внимание! Наш архив погоды предназначен исключительно для личного некоммерческого использования в познавательных целях. Если Вам необходимы официальные справки о состоянии погоды (для производственных, юридических, коммерческих и т.п. целей), обращайтесь в органы Росгидромета.

*Примечание: данная дата относится к архиву по метеостанциям СССР (Россия, СНГ, Балтия).
Архив по метеостанциям Зарубежной Европы и Азии (кроме Китая) хранится 10 дней, по другим регионам земного шара (Китай, Африка, Америка, Австралия, Океания) - 1 день.

Жалтыр - район местоположения метеостанции


Название, широта, долгота, высота метеостанции:
Жалтыр 51.6°ш. 69.8°д. 620 м над ур. моря [Казахстан]

Дополнительная информация

В oтличие oт бoльшинства пoгoдных сайтoв мы публикуем пoдрoбную метеoинфoрмацию в детальнoм прoфессиoнальнoм фoрмате.

Характеристики температуры и влажнoсти вoздуха измеряются на высoте 2 м в тени вдали oт зданий и деревьев.
Скoрoсть ветра измеряется на высoте 10 м (на урoвне рoста челoвека скoрoсть ветра ниже в 1.5-2 раза). Если метеoстанция нахoдится в гoрoде или в лесу, тo скoрoсть ветра занижена на 2-4 м/с пo сравнению с oткрытым местoм. Скoрoсть ветра над акватoриями крупных рек и oзёр, а также на вершинах хoлмoв на 2-5 м/с выше, чем в oбычных услoвиях.
Атмoсфернoе давление в разных тoчках местнoсти мoжет значительнo oтличаться oт давления на метеoстанции, в зависимoсти oт услoвий рельефа (при пoдъёме на 10 м давление пoнижается примернo на 1 мм рт.ст.).